Regional Weather Roundup
Issued by NWS

Home | Current Version | Previous Version | Graphics & Text | Print | Product List | Glossary On
Versions: 1 2 3 4 5 6 7 8 9 10 11 12 13 14 15 16 17 18 19 20 21 22 23 24 25 26 27 28 29 30 31 32 33 34 35 36 37 38 39 40 41 42 43 44 45 46 47 48 49 50
000
ASUS45 KBOU 100807
RWRCO

WEATHER ROUNDUP FOR COLORADO
NATIONAL WEATHER SERVICE DENVER/BOULDER CO
100 AM MST WED FEB 10 2016

NOTE: "FAIR" INDICATES FEW OR NO CLOUDS BELOW 12000 FEET WITH NO
SIGNIFICANT WEATHER AND/OR OBSTRUCTIONS TO VISIBILITY.

COZ001>005-013-030-031-100900-
...NORTHWEST COLORADO...

CITY           SKY/WX    TMP DP  RH WIND       PRES   REMARKS
CRAIG          CLOUDY     0  -5  79 CALM      30.46S
HAYDEN         CLOUDY    19  12  73 E16       30.44S WCI   5
MEEKER         CLOUDY     9   5  84 NE8       30.45F WCI  -3
MOUNT WERNER   NOT AVBL
STEAMBOAT SPGS CLOUDY    13  12  95 CALM      30.46F
WALDEN         CLOUDY    10   3  72 SE7       30.43S WCI   0
$$

COZ006>008-011-100900-
...WEST CENTRAL VALLEYS...

CITY           SKY/WX    TMP DP  RH WIND       PRES   REMARKS
GRAND JUNCTION CLOUDY    22  20  92 CALM      30.45F
MONTROSE       CLOUDY    24  16  71 SE9       30.48F WCI  14
EAGLE          CLOUDY    14  12  92 CALM      30.53F
RIFLE          CLOUDY    18  12  77 E6        30.48F WCI  10
DELTA          CLOUDY    28  22  80 CALM      30.47F
NUCLA          CLOUDY    28  19  69 E6        30.47F WCI  22
$$

COZ017>023-064>068-100900-
...SOUTHWEST COLORADO...

CITY           SKY/WX    TMP DP  RH WIND       PRES   REMARKS
DURANGO        CLOUDY    21  14  74 N5        30.42F WCI  15
CORTEZ         CLOUDY    20  16  84 E5        30.42F WCI  13
PAGOSA SPRINGS CLOUDY    20  13  72 CALM      30.44F
TELLURIDE      CLOUDY    29   6  38 SE10      30.50F WCI  19
WOLF CREEK PAS CLOUDY    28  -6  22 N5        30.58S WCI  23
$$

COZ009-010-012-014-032>034-037-058>063-100900-
...CENTRAL COLORADO...

CITY           SKY/WX    TMP DP  RH WIND       PRES   REMARKS
ASPEN          CLOUDY    17   8  67 S6        30.45F WCI   9
BUENA VISTA    CLOUDY    25  11  55 SW5       30.43F WCI  19
COPPER MTN     CLOUDY    27  -6  24 W14       30.51F WCI  15
BERTHOUD PASS  FAIR      19  10  68 NW23      30.49S WCI   2
COTTONWOOD PAS CLOUDY    37  -8  14 W13G21    30.45F
GUNNISON       CLOUDY    -4 N/A N/A CALM      30.59S
KREMMLING      CLOUDY    -4  -9  77 CALM      30.54S
LEADVILLE      CLOUDY    15  -1  49 NE3       30.47F
MONARCH PASS   CLOUDY    21   9  58 MISG      30.62F
SALIDA         NOT AVBL
SUNLIGHT       CLOUDY    30   5  34 CALM        N/A
WILKERSON PASS CLOUDY    28  -4  24 NW9G18    30.49S WCI  20
$$

COZ069>075-100900-
...SAN LUIS VALLEY/SANGRE DE CRISTO MOUNTAINS...

CITY           SKY/WX    TMP DP  RH WIND       PRES   REMARKS
ALAMOSA        CLOUDY    19  15  84 W6        30.45S WCI  11
LA VETA PASS   CLOUDY    28  12  50 S6        30.45S WCI  22
SAGUACHE       CLOUDY    27  14  59 N9        30.45F WCI  17
$$

COZ035-036-038>040-100900-
...NORTHERN COLORADO FRONT RANGE...

CITY           SKY/WX    TMP DP  RH WIND       PRES   REMARKS
DENVER INTL AP CLOUDY    38  17  42 SW17      30.20F
DMNS CITY PARK   N/A     40  13  32 SE8G15    30.21F
AURORA         NOT AVBL
FRONT RANGE AP   N/A     39  14  35 SW16      30.22S
ERIE MUNI ARPT CLOUDY    31  20  63 CALM      30.19F
BOULDER MUN AP CLOUDY    52  10  19 W15       30.18F
CENTENNIAL     CLOUDY    39  13  34 SW9       30.23F
BROOMFIELD     CLOUDY    52  10  19 W18       30.22S
FORT COLLINS   CLOUDY    28  19  69 CALM      30.18F
LONGMONT       CLOUDY    33  19  56 W5        30.19F WCI  28
$$

COZ041-046-047-076>085-087-088-100900-
...PIKES PEAK/PALMER DIVIDE AND SOUTHERN FOOTHILLS...

CITY           SKY/WX    TMP DP  RH WIND       PRES   REMARKS
COLO. SPRINGS  CLOUDY    34  13  41 NW7       30.28F WCI  28
A. F. ACADEMY  CLOUDY    28  10  45 NE8       30.28  WCI  20
SCHRIEVER AFB  FAIR      39  10  30 W12       30.28F
ELLICOTT       NOT AVBL
FALCON         NOT AVBL
FORT CARSON    CLOUDY    29  17  60 NW15      30.25F WCI  18
LIMON          CLOUDY    28  18  66 NW12      30.22F WCI  18
MONUMENT HILL  CLOUDY    34   5  29 SW12      30.30F WCI  25
TRINIDAD       CLOUDY    40  16  37 W16       30.28F
$$

COZ042>045-048>051-090-091-100900-
...NORTHEAST COLORADO...

CITY           SKY/WX    TMP DP  RH WIND       PRES   REMARKS
GREELEY ARPT   CLOUDY    25  21  86 CALM      30.19F
AKRON          CLOUDY    34  22  61 SW13      30.15F WCI  25
BURLINGTON     CLEAR     33  22  63 W14       30.18F WCI  23
WRAY           CLEAR     33  27  76 SW8       30.14F WCI  26
STERLING       CLOUDY    28  27  93 S6        30.14F WCI  22
HOLYOKE        CLEAR     36  28  75 W12       30.13F
FORT MORGAN    CLOUDY    27  23  84 W10       30.18F WCI  17
$$

COZ086-089-092>099-100900-
...SOUTHEAST COLORADO...

CITY           SKY/WX    TMP DP  RH WIND       PRES   REMARKS
PUEBLO         CLOUDY    30  22  72 SW8       30.26F WCI  22
LA JUNTA       CLOUDY    33  24  69 W12       30.24F WCI  24
LAMAR          CLOUDY    35  26  69 SW10      30.22F WCI  27
SPRINGFIELD      N/A     34  22  61 SW13      30.24F WCI  25
$$



USA.gov is the U.S. government's official web portal to all federal, state and local government web resources and services.